Back to catalog

FENGYUN 1C DEB

AlivePO
NORAD 30136·DEBRIS·🇨🇳 China

Launched May 10, 1999 from Taiyuan Satellite Launch Center

Loading…

Next Passes (next 24 hours)

TLE

FreshSource: Space-Track

Epoch: Sep 14, 2026, 03:52 UTC

1 30136U 99025SR  26257.16115396  .00000216  00000-0  17513-3 0  9991
2 30136  98.5233 135.0371 0129192  24.2180 126.5492 13.95598871999323

Track FENGYUN 1C DEB in real time with AllMySat

Download on the App Store